Wind_Speed
31 30 30 31 29 28 28 29 29 31 29 29 30 32 31 30 31 30 30 32 32 32 33 32 33 34 34 35 36 36 37 35 34 35 39 39 35 33 34 34 33 34 33 32 32
36 35 34 33 33 31 30 31 31 30 31 32 30 30 31 30 30 31 29 31 31 31 31 30 31 30 31 33 34 34 34 33 34 35 38 41 40 38 38 36 36 38 38 37 35
42 43 40 38 36 35 34 33 32 34 32 32 34 33 32 32 31 32 29 30 31 31 30 29 28 28 29 30 30 30 28 30 31 32 34 37 39 40 41 41 39 41 41 40 39
44 48 49 49 46 42 40 40 38 35 34 35 33 35 34 33 34 33 30 30 31 32 30 29 28 28 28 28 29 28 27 29 26 28 31 33 35 37 39 39 43 45 43 41 41
45 49 49 48 51 51 48 46 43 42 39 37 39 36 36 34 37 33 33 30 32 32 31 30 29 29 28 28 28 25 26 22 23 25 27 27 28 31 30 34 37 40 41 43 43
44 46 46 45 49 51 53 51 49 50 47 45 42 42 38 35 38 36 35 34 33 34 33 32 30 29 29 28 26 24 23 19 18 19 18 16 17 18 17 23 27 31 33 33 37
48 46 48 48 47 47 51 53 54 50 52 48 46 44 44 40 39 39 38 37 36 35 35 34 32 31 29 29 26 26 23 20 17 20 16 16 15 14 19 14 16 17 20 26 27
50 48 48 49 50 51 49 48 50 55 51 53 51 48 44 45 42 41 42 40 39 38 37 38 37 34 32 29 27 26 25 21 20 22 19 20 16 18 17 17 20 21 20 18 19
57 56 53 51 49 50 51 50 46 49 53 54 54 53 47 47 46 47 44 44 42 41 39 39 39 37 35 31 30 29 25 24 24 24 23 22 19 18 18 18 20 22 23 25 24
64 64 63 62 59 56 54 55 54 51 54 51 51 54 56 48 50 49 47 45 45 45 43 42 42 39 38 33 27 27 28 27 26 25 23 21 20 18 19 20 21 22 22 24 27
71 72 72 70 67 64 62 57 58 57 52 50 53 58 57 51 51 52 52 49 47 48 47 45 44 38 29 32 37 34 31 29 27 25 25 25 23 21 21 21 24 25 25 24 26
81 79 76 76 69 64 63 57 57 60 59 55 54 57 58 60 57 58 56 52 50 49 47 49 45 36 41 42 37 33 33 31 29 27 27 27 26 23 22 24 26 27 26 27 26
87 83 80 72 72 64 61 55 60 65 67 61 60 61 62 64 63 64 60 56 54 52 52 50 42 45 46 41 38 35 34 34 32 31 30 29 25 26 26 24 27 26 27 26 26
80 74 72 70 65 61 58 59 60 60 67 68 62 65 66 67 67 69 64 60 58 54 53 53 49 50 48 43 41 39 37 38 36 34 33 31 29 28 29 27 26 29 31 31 29
71 67 65 64 60 53 55 58 56 53 56 59 56 57 55 60 62 61 58 60 60 55 57 54 49 50 49 43 42 41 39 39 39 37 36 33 34 26 28 27 28 31 33 32 30
61 57 47 47 48 47 51 50 52 49 53 54 46 47 43 45 55 58 59 62 61 56 57 55 52 51 48 46 46 44 44 41 40 39 40 32 34 26 26 25 27 30 30 30 28
42 38 43 39 36 40 47 42 49 52 51 49 43 38 35 35 43 49 57 64 67 64 62 58 56 54 50 49 49 47 45 44 43 44 41 34 36 27 27 23 25 26 25 25 26
33 32 38 38 36 31 41 42 50 49 43 39 34 33 31 36 37 40 50 58 62 60 59 55 55 54 50 51 49 44 44 44 43 43 38 35 36 29 27 24 23 22 21 21 22
27 28 31 29 28 34 37 39 55 49 40 34 33 32 31 30 32 33 46 53 58 59 59 57 55 51 47 46 47 48 47 45 45 44 42 40 34 30 27 24 20 18 17 17 18
27 27 32 33 30 44 39 42 37 42 41 34 32 31 32 32 35 35 40 47 54 58 56 57 55 51 47 47 49 49 45 46 46 44 42 39 33 29 28 24 21 18 15 14 14
25 27 19 25 27 36 41 48 38 39 37 33 31 32 31 33 31 27 34 39 48 54 54 57 55 53 50 49 48 47 47 47 46 45 41 38 33 30 29 26 24 21 18 17 16
23 20 20 19 28 45 32 39 32 37 34 34 34 31 30 32 28 27 29 35 47 55 57 57 55 53 49 46 47 47 47 45 45 45 41 36 34 29 29 27 26 23 21 20 20
18 16 16 25 26 44 27 34 41 33 38 36 33 31 30 35 24 26 27 34 42 48 57 57 56 53 51 48 48 50 47 46 46 45 42 38 36 31 31 28 26 26 24 24 23
17 15 15 21 22 33 40 28 35 37 37 38 31 29 33 39 28 18 29 24 37 45 49 51 54 52 48 43 43 44 44 44 43 42 39 36 30 31 33 31 27 27 27 26 26
19 20 13 12 21 28 30 31 34 36 33 28 31 32 31 30 27 17 19 33 30 39 38 48 49 50 47 46 42 42 41 41 40 37 39 31 32 35 34 31 28 27 28 29 28
11 17 18 21 26 17 26 27 30 35 28 36 34 33 30 30 24 23 28 28 30 38 37 42 44 46 47 45 44 42 41 41 43 43 40 33 31 33 34 31 27 28 29 30 30
16 16 24 16 12 12 28 19 24 31 36 31 33 29 32 26 24 23 29 27 28 32 38 39 42 40 40 40 40 42 39 40 36 33 30 31 27 33 33 28 26 29 29 29 30
Wind_Direction
281 280 280 277 271 270 270 270 264 259 256 254 252 252 247 247 245 242 245 245 241 241 241 240 242 243 245 247 248 248 249 249 248 247 249 252 249 247 246 243 241 239 238 238 237
278 279 279 277 276 272 268 268 269 264 261 257 253 250 249 244 246 241 242 246 245 241 243 242 242 242 244 245 246 247 248 248 248 247 249 252 252 249 247 242 240 241 240 238 237
276 279 278 277 276 272 273 270 265 268 263 261 257 252 248 248 245 245 240 242 243 239 238 239 240 242 244 244 245 245 244 245 244 247 248 250 251 250 249 246 243 240 241 242 240
273 269 273 278 275 272 270 266 268 264 263 261 257 256 252 249 248 245 240 241 240 236 235 238 240 242 242 242 242 242 241 241 243 245 246 247 249 251 251 251 248 246 244 243 242
274 270 270 262 272 273 271 268 263 263 262 261 261 253 251 250 249 243 243 235 239 237 237 235 236 239 243 243 241 240 238 239 237 239 243 248 252 254 252 250 249 249 247 244 244
275 275 273 271 260 265 267 269 265 267 262 260 258 256 248 245 247 244 241 236 234 237 237 231 233 237 239 239 236 227 229 228 233 240 240 240 241 249 255 251 254 253 253 251 244
280 275 276 275 270 266 261 260 264 264 262 259 257 255 250 243 240 244 239 237 233 233 236 231 230 234 234 231 225 226 231 229 228 236 243 241 245 243 250 263 262 258 258 255 251
289 284 279 276 276 275 270 263 258 260 256 254 257 253 250 246 241 238 240 237 234 231 234 233 230 231 229 230 228 232 235 234 234 242 243 253 253 254 258 257 263 267 268 267 264
290 288 286 282 277 275 274 271 260 254 258 250 253 248 249 247 244 239 234 236 234 231 230 233 231 229 228 228 230 235 240 241 239 241 246 254 254 260 262 263 264 266 270 264 260
289 289 288 286 283 278 273 271 268 265 254 256 255 247 249 246 239 240 237 235 234 233 228 230 232 230 229 230 237 241 241 236 235 238 244 249 254 262 262 264 268 269 269 266 258
290 289 287 285 282 279 275 269 264 260 251 252 250 240 242 241 239 240 237 233 234 232 232 229 231 233 233 230 230 234 238 236 240 241 244 248 255 261 269 273 270 272 273 272 261
289 288 286 284 280 275 272 266 258 257 256 250 247 237 236 237 239 240 238 235 232 234 233 231 229 225 227 229 230 232 236 237 238 242 248 251 258 262 269 274 274 275 275 272 270
289 287 283 278 276 271 266 258 253 252 249 244 238 236 236 235 233 235 235 233 231 230 231 230 229 225 228 229 231 231 234 237 237 242 249 255 258 266 270 273 276 277 275 276 275
286 281 275 272 266 260 255 254 254 255 254 248 238 236 235 238 228 233 236 231 229 228 229 228 224 225 225 226 229 231 233 238 239 241 248 255 258 264 272 275 276 275 276 274 273
281 275 269 265 263 255 251 251 253 254 256 255 249 245 240 239 241 235 238 231 226 226 228 228 223 225 226 226 228 230 233 236 240 242 248 253 259 259 268 273 276 277 277 271 264
279 272 267 263 253 250 243 247 249 248 250 255 257 253 248 241 239 231 229 228 225 222 224 223 221 220 223 224 226 229 232 235 240 242 245 249 260 262 265 270 278 282 276 268 260
276 254 247 247 250 250 245 241 243 242 246 250 255 258 248 240 236 230 225 223 222 220 218 218 220 219 219 223 226 226 230 235 239 242 247 249 257 265 263 269 282 286 273 264 258
268 264 242 241 245 227 247 239 239 235 240 247 254 249 243 231 229 224 222 219 219 219 221 222 221 219 219 223 228 230 232 236 241 245 250 251 254 258 260 268 284 290 281 264 256
266 256 236 240 242 213 218 224 224 235 241 244 243 237 231 233 229 222 221 218 218 217 219 219 220 219 221 224 226 227 228 233 238 245 248 248 252 254 256 263 277 290 285 273 261
262 258 238 242 240 219 221 233 238 235 237 233 235 231 229 226 215 223 218 217 216 211 216 218 220 218 217 219 223 225 226 229 235 240 244 247 247 251 251 256 269 281 285 275 266
262 256 241 235 231 204 221 228 231 231 226 223 231 232 228 232 222 227 220 220 217 211 215 217 217 218 217 217 222 225 225 229 233 237 241 246 247 245 247 252 262 273 280 280 271
264 257 240 228 222 201 228 210 224 225 224 223 225 223 227 223 225 233 227 220 214 211 214 215 216 216 217 218 222 225 224 226 231 236 240 244 246 244 245 249 260 265 272 274 272
267 244 213 239 223 217 216 212 221 211 221 221 225 223 224 229 226 218 222 230 213 207 211 214 216 215 217 218 219 223 225 227 230 232 233 237 240 243 247 251 257 264 269 272 272
248 192 228 236 229 216 220 217 220 215 212 222 218 227 225 226 225 208 214 209 215 203 210 213 218 215 218 222 225 226 226 227 229 232 236 239 239 241 245 250 256 262 267 269 270
238 229 225 219 225 215 210 216 208 213 211 220 220 223 218 225 214 197 225 225 226 195 203 208 214 212 215 216 216 217 219 223 228 230 232 231 234 241 247 252 257 263 265 267 270
217 233 228 207 191 241 217 208 210 205 212 209 215 216 212 212 205 220 201 215 231 211 199 201 207 209 210 212 214 216 216 219 219 222 227 229 236 243 250 255 260 262 265 268 272
222 219 201 212 217 210 199 197 215 210 220 216 208 209 208 211 218 216 211 201 221 209 206 202 203 205 208 209 211 213 214 220 223 225 228 232 233 244 252 258 259 262 267 271 274
Height
5727 5726 5725 5723 5721 5720 5720 5721 5721 5721 5721 5721 5722 5723 5725 5726 5728 5729 5731 5734 5734 5736 5737 5740 5742 5744 5746 5748 5750 5751 5755 5757 5759 5760 5761 5762 5767 5769 5771 5774 5776 5776 5778 5780 5782
5719 5717 5716 5715 5714 5712 5711 5712 5713 5713 5714 5714 5715 5716 5718 5719 5721 5721 5724 5725 5727 5729 5730 5733 5735 5737 5739 5741 5743 5745 5747 5749 5751 5752 5753 5755 5758 5761 5764 5767 5769 5770 5771 5773 5774
5709 5708 5707 5706 5705 5704 5704 5703 5703 5704 5705 5706 5708 5709 5711 5713 5714 5715 5716 5717 5719 5722 5724 5726 5729 5730 5733 5735 5738 5739 5741 5741 5743 5745 5747 5748 5749 5752 5754 5758 5761 5761 5764 5766 5768
5699 5698 5695 5693 5694 5694 5694 5695 5695 5694 5695 5697 5698 5701 5703 5706 5708 5708 5709 5711 5713 5716 5718 5720 5723 5725 5728 5730 5731 5734 5734 5734 5738 5739 5741 5741 5742 5744 5747 5750 5752 5754 5757 5759 5761
5687 5685 5684 5682 5681 5680 5681 5683 5684 5685 5686 5687 5689 5690 5694 5699 5697 5700 5703 5704 5707 5709 5711 5714 5717 5720 5722 5724 5725 5728 5727 5730 5731 5733 5734 5735 5737 5738 5740 5741 5742 5744 5748 5751 5754
5674 5673 5672 5671 5670 5669 5668 5668 5670 5672 5675 5677 5678 5681 5684 5689 5690 5693 5695 5698 5699 5703 5705 5708 5710 5713 5715 5718 5721 5722 5722 5725 5727 5728 5730 5731 5732 5733 5736 5734 5736 5738 5740 5742 5744
5660 5659 5658 5657 5657 5658 5658 5658 5658 5659 5660 5663 5667 5670 5674 5677 5681 5684 5687 5689 5693 5695 5699 5701 5703 5706 5711 5712 5714 5716 5718 5721 5723 5723 5725 5727 5729 5731 5730 5732 5732 5732 5733 5734 5736
5645 5645 5644 5643 5642 5642 5643 5645 5647 5647 5649 5650 5653 5657 5663 5667 5671 5674 5677 5681 5684 5687 5690 5694 5697 5700 5703 5706 5709 5711 5714 5716 5719 5719 5721 5722 5725 5725 5727 5728 5728 5727 5728 5729 5730
5631 5628 5627 5627 5629 5629 5628 5629 5632 5634 5636 5638 5640 5644 5650 5656 5659 5661 5667 5671 5675 5678 5682 5686 5690 5693 5696 5699 5703 5705 5710 5711 5712 5715 5716 5717 5719 5720 5721 5722 5723 5722 5723 5724 5725
5615 5614 5612 5611 5611 5612 5613 5614 5615 5617 5622 5625 5627 5632 5637 5643 5647 5650 5656 5660 5665 5668 5673 5677 5681 5686 5689 5693 5699 5702 5704 5705 5708 5710 5711 5712 5712 5714 5716 5717 5717 5717 5717 5717 5718
5601 5597 5594 5593 5592 5591 5592 5594 5597 5600 5603 5609 5611 5617 5620 5628 5634 5638 5642 5647 5654 5658 5664 5668 5672 5680 5687 5687 5688 5693 5698 5701 5702 5704 5706 5707 5707 5709 5710 5711 5711 5711 5711 5711 5710
5579 5577 5575 5570 5571 5570 5571 5575 5577 5579 5581 5590 5594 5601 5607 5613 5620 5625 5631 5636 5642 5649 5653 5659 5664 5672 5672 5675 5682 5687 5691 5695 5697 5698 5700 5701 5702 5704 5705 5704 5704 5705 5705 5704 5704
5556 5551 5549 5548 5547 5549 5551 5558 5557 5556 5556 5570 5576 5583 5592 5596 5605 5613 5617 5622 5629 5635 5641 5648 5659 5659 5662 5669 5675 5680 5684 5688 5691 5691 5693 5695 5697 5696 5699 5700 5698 5698 5697 5697 5698
5529 5523 5519 5518 5524 5528 5533 5538 5536 5537 5531 5543 5558 5565 5574 5578 5586 5595 5601 5608 5614 5624 5629 5635 5644 5649 5654 5660 5666 5671 5676 5680 5683 5685 5688 5689 5691 5691 5691 5692 5692 5692 5691 5691 5691
5498 5496 5495 5493 5500 5511 5519 5518 5521 5522 5513 5526 5538 5549 5558 5563 5573 5582 5588 5592 5601 5610 5617 5628 5633 5640 5645 5653 5658 5664 5667 5671 5675 5677 5680 5684 5683 5689 5685 5686 5685 5684 5684 5684 5684
5471 5471 5472 5475 5480 5493 5496 5502 5505 5506 5500 5513 5518 5532 5542 5549 5551 5562 5568 5577 5588 5595 5604 5614 5622 5628 5636 5641 5646 5653 5658 5662 5666 5669 5670 5677 5676 5682 5680 5680 5679 5677 5676 5676 5677
5450 5450 5455 5460 5468 5476 5481 5489 5488 5485 5498 5502 5512 5520 5529 5534 5538 5545 5554 5563 5572 5582 5590 5601 5609 5616 5625 5631 5636 5643 5650 5653 5657 5658 5663 5670 5669 5675 5674 5675 5673 5671 5669 5670 5671
5434 5435 5441 5448 5456 5466 5469 5473 5471 5481 5490 5497 5505 5511 5516 5522 5526 5533 5539 5548 5558 5573 5583 5594 5601 5608 5616 5622 5630 5636 5641 5646 5648 5651 5657 5661 5661 5667 5667 5669 5668 5666 5664 5664 5665
5425 5425 5431 5438 5443 5452 5458 5457 5462 5473 5485 5491 5496 5501 5508 5513 5520 5525 5531 5540 5552 5562 5572 5582 5589 5597 5606 5613 5620 5625 5630 5637 5640 5643 5648 5651 5657 5659 5660 5662 5663 5661 5660 5660 5661
5417 5417 5425 5427 5432 5437 5443 5449 5456 5468 5477 5483 5487 5493 5499 5505 5510 5515 5521 5531 5541 5549 5560 5570 5578 5586 5594 5601 5606 5613 5623 5626 5630 5634 5638 5642 5649 5653 5654 5656 5657 5657 5656 5655 5656
5409 5410 5417 5417 5423 5427 5431 5441 5453 5462 5470 5475 5481 5486 5492 5497 5503 5507 5515 5525 5531 5541 5547 5555 5566 5576 5582 5590 5598 5605 5611 5616 5622 5626 5630 5636 5642 5646 5647 5650 5651 5652 5652 5651 5651
5403 5406 5409 5413 5416 5419 5429 5438 5446 5454 5461 5468 5473 5481 5486 5492 5495 5501 5507 5515 5520 5525 5534 5547 5554 5564 5573 5580 5588 5595 5601 5607 5612 5618 5623 5629 5635 5638 5641 5643 5644 5645 5646 5646 5647
5399 5401 5405 5408 5411 5416 5424 5430 5438 5446 5455 5462 5467 5475 5479 5482 5487 5494 5499 5505 5509 5515 5524 5537 5543 5554 5562 5569 5576 5583 5592 5598 5603 5608 5615 5620 5627 5632 5633 5636 5638 5639 5639 5640 5641
5394 5398 5401 5404 5409 5414 5419 5426 5432 5440 5449 5456 5462 5468 5473 5477 5484 5489 5496 5501 5506 5511 5519 5527 5537 5547 5558 5566 5573 5579 5586 5591 5596 5602 5609 5614 5620 5623 5625 5628 5631 5632 5633 5633 5634
5391 5394 5397 5401 5405 5409 5416 5422 5426 5434 5443 5451 5456 5463 5469 5474 5479 5484 5490 5496 5501 5505 5511 5520 5531 5539 5547 5554 5561 5568 5575 5581 5588 5597 5599 5608 5610 5612 5616 5621 5624 5626 5625 5626 5627
5388 5392 5395 5398 5401 5406 5413 5417 5422 5430 5437 5442 5452 5458 5463 5469 5474 5479 5484 5490 5496 5502 5507 5515 5524 5533 5540 5546 5552 5559 5567 5573 5579 5584 5590 5599 5603 5605 5608 5612 5617 5617 5618 5618 5619
5388 5390 5394 5397 5400 5403 5409 5414 5419 5425 5432 5438 5445 5451 5457 5464 5468 5474 5480 5487 5493 5499 5504 5510 5518 5527 5534 5540 5545 5553 5562 5568 5575 5581 5587 5591 5597 5596 5600 5605 5607 5608 5609 5610 5611